TimeHST,TemperatureF,Dew PointF,Humidity,Sea Level PressureIn,VisibilityMPH,Wind Direction,Wind SpeedMPH,Gust SpeedMPH,PrecipitationIn,Events,Conditions,WindDirDegrees,DateUTC
12:58 AM,74.8,64.9,71,30.10,10.0,Variable,1.2,-,N/A,,Scattered Clouds,0,2013-08-26 10:58:00
1:58 AM,73.2,64.2,73,30.09,10.0,ENE,8.1,-,N/A,,Partly Cloudy,60,2013-08-26 11:58:00
2:58 AM,71.1,63.5,77,30.08,10.0,NW,3.5,-,N/A,,Mostly Cloudy,310,2013-08-26 12:58:00
3:58 AM,71.1,63.9,78,30.08,10.0,WNW,3.5,-,N/A,,Overcast,300,2013-08-26 13:58:00
4:58 AM,71.2,63.7,77,30.09,10.0,West,3.5,-,N/A,,Mostly Cloudy,280,2013-08-26 14:58:00
5:58 AM,70.5,64.2,80,30.10,10.0,West,2.3,-,N/A,,Scattered Clouds,260,2013-08-26 15:58:00
6:58 AM,68.5,63.7,84,30.10,10.0,WNW,4.6,-,N/A,,Scattered Clouds,290,2013-08-26 16:58:00
7:58 AM,76.6,65.3,68,30.11,10.0,Variable,4.6,-,N/A,,Clear,0,2013-08-26 17:58:00
8:58 AM,79.5,63.0,57,30.11,10.0,ENE,10.4,19.6,N/A,,Clear,70,2013-08-26 18:58:00
9:58 AM,81.9,60.6,48,30.11,10.0,East,12.7,19.6,N/A,,Clear,90,2013-08-26 19:58:00
10:24 AM,82.4,62.6,51,30.11,10.0,ESE,12.7,23.0,N/A,,Clear,110,2013-08-26 20:24:00
10:32 AM,82.4,62.6,51,30.11,10.0,ENE,13.8,19.6,N/A,,Clear,70,2013-08-26 20:32:00
10:58 AM,82.4,63.1,52,30.11,10.0,ENE,12.7,-,N/A,,Scattered Clouds,70,2013-08-26 20:58:00
11:58 AM,83.5,63.3,50,30.10,10.0,East,17.3,24.2,N/A,,Clear,90,2013-08-26 21:58:00
12:58 PM,85.1,63.0,47,30.08,10.0,East,17.3,21.9,N/A,,Clear,80,2013-08-26 22:58:00
1:58 PM,84.2,63.7,50,30.07,10.0,East,16.1,23.0,N/A,,Clear,90,2013-08-26 23:58:00
2:23 PM,84.2,64.4,51,30.07,10.0,ENE,16.1,-,N/A,,Clear,60,2013-08-27 00:23:00
2:40 PM,84.2,62.6,48,30.07,10.0,East,16.1,25.3,N/A,Rain,Light Rain,90,2013-08-27 00:40:00
2:49 PM,84.2,62.6,48,30.06,10.0,East,17.3,24.2,N/A,,Clear,90,2013-08-27 00:49:00
2:58 PM,84.6,63.0,48,30.06,10.0,East,16.1,25.3,0.11,,Clear,90,2013-08-27 00:58:00
3:58 PM,83.8,63.0,49,30.05,10.0,East,20.7,23.0,0.01,,Clear,80,2013-08-27 01:58:00
4:58 PM,81.3,62.6,53,30.05,10.0,East,17.3,23.0,N/A,,Clear,80,2013-08-27 02:58:00
5:58 PM,79.5,64.9,61,30.06,10.0,East,12.7,-,N/A,,Clear,90,2013-08-27 03:58:00
6:58 PM,76.3,64.9,68,30.08,10.0,Variable,4.6,-,N/A,,Clear,0,2013-08-27 04:58:00
7:58 PM,75.4,65.1,70,30.10,10.0,East,5.8,-,N/A,,Clear,90,2013-08-27 05:58:00
8:58 PM,74.8,64.2,69,30.12,10.0,East,5.8,-,N/A,,Clear,80,2013-08-27 06:58:00
9:58 PM,74.1,64.0,71,30.13,10.0,ENE,6.9,-,N/A,,Clear,60,2013-08-27 07:58:00
10:58 PM,74.8,64.4,70,30.13,10.0,ENE,4.6,-,N/A,,Scattered Clouds,70,2013-08-27 08:58:00
11:58 PM,74.5,64.9,72,30.12,10.0,ENE,8.1,-,N/A,,Scattered Clouds,70,2013-08-27 09:58:00